Location: Unspecified
(51.0950°N, 12.9690°E)
Time: 01:52:53
(UTC+00:00)

ATLAS 3B R/B - Visible Passes

Search period start: 22 May 2022 00:00
Search period end: 01 June 2022 00:00
Orbit: 979 x 1215 km, 63.8° (Epoch: 19 May)

Date Brightness Start Highest point End Pass type
(mag) Time Alt. Az. Time Alt. Az. Time Alt. Az.
22 May 3.6 20:27:49 10° NW 20:34:50 50° NNE 20:42:09 10° ESE visible
22 May 3.0 22:18:40 10° NW 22:25:53 62° SW 22:30:15 27° SSE visible
23 May 4.5 00:11:14 10° WNW 00:15:21 16° WSW 00:17:28 14° WSW visible
23 May 3.9 19:40:25 10° NW 19:47:08 40° NNE 19:54:09 10° E visible
23 May 2.9 21:31:17 10° NW 21:38:38 86° SW 21:44:09 21° SE visible
23 May 4.1 23:22:50 10° WNW 23:28:36 25° WSW 23:31:23 20° SW visible
24 May 3.1 20:43:57 10° NW 20:51:15 71° NE 20:58:07 13° SE visible
24 May 3.6 22:35:02 10° NW 22:41:41 38° WSW 22:45:21 24° SSW visible
25 May 3.4 19:56:37 10° NW 20:03:43 54° NE 20:11:07 10° ESE visible
25 May 3.2 21:47:30 10° NW 21:54:37 55° WSW 21:59:21 23° S visible
25 May 4.7 23:40:41 10° WNW 23:43:56 13° WSW 23:46:35 11° SW visible
26 May 2.9 21:00:05 10° NW 21:07:25 78° SW 21:13:24 18° SSE visible
26 May 4.3 22:51:52 10° WNW 22:57:14 22° WSW 23:00:38 16° SW visible
27 May 3.0 20:12:45 10° NW 20:20:04 78° NE 20:27:30 11° SE visible
27 May 3.9 22:03:56 10° NW 22:10:22 33° WSW 22:14:44 19° SSW visible
28 May 3.4 21:16:20 10° NW 21:23:21 49° WSW 21:28:52 18° S visible
28 May 4.9 23:10:35 10° W 23:12:30 11° W 23:14:27 10° WSW visible
29 May 3.1 20:28:54 10° NW 20:36:12 71° SW 20:43:03 13° SSE visible
29 May 4.6 22:20:59 10° WNW 22:25:51 19° WSW 22:30:18 11° SW visible
30 May 4.1 21:32:52 10° WNW 21:39:02 29° WSW 21:44:31 13° SSW visible
31 May 3.7 20:45:11 10° NW 20:52:04 44° WSW 20:58:47 11° S visible
